Regional Weather Roundup
Issued by NWS Midland/Odessa, TX

Skip options and go directly to product.
Home | Oldest Version | Previous Version | Current Version | All | Text Only | Save Text | Print | Product List | Glossary On

Skip product version selection by date and time.   
681
ASUS44 KMAF 190410
RWRMAF
MIDLAND AREA WEATHER ROUNDUP
NATIONAL WEATHER SERVICE MIDLAND TX
1000 PM CST THU DEC 18 2014

...IN SOUTHWEST TEXAS AND SOUTHEAST NEW MEXICO...

CITY           SKY/WX    TMP DP  RH WIND       PRES   REMARKS
ALPINE         MOCLDY    42  31  65 W5        30.17R WCI  39
ANDREWS        MOCLDY    50  34  54 SE3       30.08S
ARTESIA        CLOUDY    52  34  50 SW8       30.10R
BIG SPRING     CLOUDY    47  36  67 NE18G25   30.11S WCI  39
CARLSBAD       CLOUDY    53  35  50 W5        30.08R
DRYDEN           N/A     59  38  45 N8        30.04S
FORT STOCKTON  PTCLDY    47  33  58 S8        30.08R
GUAD PASS      NOT AVBL
HOBBS          CLOUDY    50  32  50 CALM      30.09S
MARFA          CLOUDY    41  27  56 NW8       30.15R WCI  36
MIDLAND AIRPK  CLOUDY    51  36  55 E7        30.08F
MIDLAND INTL   CLOUDY    50  34  54 E6        30.06F
ODESSA         CLOUDY    53  33  46 E6        30.08S
PECOS          MOCLDY    49  32  51 SW7       30.09R
PRESIDIO       FAIR      53  34  48 N13       30.08S
SEMINOLE       CLOUDY    51  34  52 CALM      30.09S
SNYDER         CLOUDY    41  37  87 NE15      30.13S WCI  33
WINK           CLOUDY    50  31  48 S5        30.07R
$$
...OTHER STATIONS IN TEXAS...

CITY           SKY/WX    TMP DP  RH WIND       PRES   REMARKS
ABILENE        MOCLDY    44  39  82 NE3       30.16R
AMARILLO       CLOUDY    35  31  85 E9        30.14S WCI  28
AUSTIN         CLOUDY    53  52  96 N13       30.08S FOG
BROWNSVILLE    CLOUDY    72  67  84 SE6       30.01R
CORPUS CHRISTI LGT RAIN  69  67  93 SE7       29.99F
DALLAS FTW     CLOUDY    47  43  86 NE3       30.18R
DEL RIO        MOCLDY    60  54  80 CALM      30.02S
EL PASO        MOCLDY    47  40  76 W14       30.13S
HOUSTON INT    CLOUDY    61  58  90 E12       30.06F
LUBBOCK        CLOUDY    39  36  89 E9        30.12S WCI  33
SAN ANGELO     CLOUDY    53  41  63 NE12      30.09R
SAN ANTONIO    LGT RAIN  58  55  90 NE8       30.05S FOG
WACO           CLOUDY    48  46  93 N9        30.15R
WICHITA FALLS  NOT AVBL
$$
...OTHER LOCATIONS IN NEW MEXICO...

CITY           SKY/WX    TMP DP  RH WIND       PRES   REMARKS
ALAMAGORDO     LGT RAIN  41  39  93 N5        30.16R WCI  38
ALBUQUERQUE    MOCLDY    39  28  64 N3        30.14R
CANNON AFB     CLOUDY    38  33  80 SE9       30.11R WCI  32
CLOVIS         CLOUDY    36  30  80 E9        30.11R WCI  29
HOLLOMAN AFB   DRIZZLE   41  41 100 NE7       30.14R WCI  36
ROSWELL        CLOUDY    47  37  68 N7        30.09R
RUIDOSO        CLOUDY    32  28  86 W3        30.13S
SANTA FE       MOCLDY    30  25  81 N5        30.10R WCI  25
TRUTH OR CONSE CLOUDY    41  38  89 NE6       30.13S WCI  37
TUCUMCARI      CLOUDY    39  28  64 E9        30.09R WCI  33
$$

USA.gov is the U.S. government's official web portal to all federal, state and local government web resources and services.